Weather History for KCVB - March, 2013

Change the Weather History Date:

Monday, March 11, 2013

  Actual Average (KSKF) Record (KSKF)
Temperature  
Mean Temperature 54 °F -  
Max Temperature 73 °F 70 °F 89 °F (2006)
Min Temperature 35 °F 50 °F 37 °F (1998)
Degree Days  
Heating Degree Days 11    
Growing Degree Days 4 (Base 50)    
Moisture  
Dew Point 26 °F    
Average Humidity 41    
Maximum Humidity 80    
Minimum Humidity 14    
Precipitation  
Precipitation 0.00 in - - ()
Sea Level Pressure  
Sea Level Pressure 30.12 in    
Wind  
Wind Speed 7 mph (NNW)    
Max Wind Speed 13 mph    
Max Gust Speed 18 mph    
Visibility 10 miles    
Events      
Averages and records for this station are not official NWS values.
T = Trace of Precipitation, MM = Missing Value Source: NWS Daily Summary

Daily Weather History Graph

Daily Weather History Graph

Search for Another Location

Airport or City:

Trip Planner

Search our weather history database for the weather conditions in past years. The results will help you decide how hot, cold, wet, or windy it might be!

Date:

Astronomy

Mar. 11, 2013 Rise Set
Actual Time 7:49 AM CDT 7:41 PM CDT
Civil Twilight 7:25 AM CDT 8:05 PM CDT
Nautical Twilight 6:58 AM CDT 8:32 PM CDT
Astronomical Twilight 6:30 AM CDT 9:00 PM CDT
Moon 7:26 AM CDT (3/11) 7:50 PM CDT (3/11)
Length of Visible Light 12h 39m
Length of Day
11h 52m
Waning Crescent, 0% of the Moon is Illuminated
Mar 11
Waning Crescent
Mar 11
New
Mar 19
First Quarter
Mar 27
Full
Apr 2
Last Quarter

Hourly Weather History & Observations

Time (CDT) Temp. Windchill Dew Point Humidity Pressure Visibility Wind Dir Wind Speed Gust Speed Precip Events Conditions
12:15 AM 44.1 °F 41.5 °F 32.0 °F 63% 30.17 in 10.0 mi NW 4.6 mph - N/A   Clear
12:35 AM 44.6 °F 40.7 °F 31.5 °F 60% 30.17 in 10.0 mi NW 6.9 mph - N/A   Clear
12:55 AM 44.6 °F 40.7 °F 32.0 °F 61% 30.17 in 10.0 mi NW 6.9 mph - N/A   Clear
1:35 AM 43.3 °F 39.2 °F 32.4 °F 65% 30.16 in 10.0 mi NW 6.9 mph - N/A   Clear
2:15 AM 42.1 °F 37.1 °F 32.0 °F 67% 30.16 in 10.0 mi NW 8.1 mph - N/A   Clear
2:35 AM 41.9 °F 37.5 °F 32.2 °F 68% 30.15 in 10.0 mi NW 6.9 mph - N/A   Clear
2:55 AM 41.4 °F 36.8 °F 32.2 °F 70% 30.15 in 10.0 mi NW 6.9 mph - N/A   Clear
3:15 AM 40.6 °F 36.7 °F 32.0 °F 71% 30.14 in 10.0 mi NNW 5.8 mph - N/A   Clear
3:35 AM 39.6 °F 34.7 °F 32.0 °F 74% 30.14 in 10.0 mi NW 6.9 mph - N/A   Clear
3:55 AM 40.1 °F 34.1 °F 32.2 °F 73% 30.14 in 10.0 mi NW 9.2 mph - N/A   Clear
4:15 AM 39.4 °F 33.2 °F 32.0 °F 75% 30.13 in 10.0 mi NW 9.2 mph - N/A   Clear
4:35 AM 39.2 °F 33.6 °F 32.0 °F 75% 30.13 in 10.0 mi NW 8.1 mph - N/A   Clear
4:55 AM 38.8 °F 33.2 °F 32.0 °F 76% 30.12 in 10.0 mi NW 8.1 mph - N/A   Clear
5:15 AM 37.4 °F 32.1 °F 31.5 °F 79% 30.12 in 10.0 mi NNW 6.9 mph - N/A   Clear
5:35 AM 37.6 °F 32.3 °F 32.0 °F 80% 30.12 in 10.0 mi NW 6.9 mph - N/A   Clear
5:55 AM 37.8 °F 30.7 °F 31.5 °F 78% 30.13 in 10.0 mi NW 10.4 mph - N/A   Clear
6:15 AM 37.6 °F 31.6 °F 31.5 °F 79% 30.14 in 10.0 mi NW 8.1 mph - N/A   Clear
6:35 AM 37.4 °F 30.8 °F 31.1 °F 78% 30.15 in 10.0 mi NW 9.2 mph - N/A   Clear
6:55 AM 36.7 °F 29.9 °F 30.7 °F 79% 30.16 in 10.0 mi NW 9.2 mph - N/A   Clear
7:15 AM 35.8 °F 29.4 °F 29.7 °F 78% 30.17 in 10.0 mi NW 8.1 mph - N/A   Clear
7:35 AM 36.0 °F 29.0 °F 29.3 °F 77% 30.18 in 10.0 mi NW 9.2 mph - N/A   Clear
7:55 AM 35.6 °F 29.2 °F 28.6 °F 76% 30.18 in 10.0 mi NNW 8.1 mph - N/A   Clear
8:15 AM 37.6 °F 31.0 °F 29.3 °F 72% 30.19 in 10.0 mi NW 9.2 mph - N/A   Clear
8:35 AM 39.2 °F 33.6 °F 30.2 °F 70% 30.20 in 10.0 mi NNW 8.1 mph - N/A   Clear
8:55 AM 41.5 °F 36.4 °F 29.3 °F 62% 30.21 in 10.0 mi NNW 8.1 mph - N/A   Clear
9:15 AM 43.7 °F 39.7 °F 29.3 °F 57% 30.21 in 10.0 mi NNW 6.9 mph - N/A   Clear
9:35 AM 46.0 °F 43.1 °F 30.0 °F 54% 30.22 in 10.0 mi North 5.8 mph - N/A   Clear
9:55 AM 48.9 °F - 22.3 °F 35% 30.22 in 10.0 mi North 9.2 mph - N/A   Clear
10:15 AM 50.5 °F - 21.7 °F 32% 30.22 in 10.0 mi NNE 6.9 mph - N/A   Clear
10:35 AM 52.3 °F - 20.7 °F 29% 30.22 in 10.0 mi NNE 5.8 mph - N/A   Clear
10:55 AM 54.3 °F - 21.6 °F 28% 30.22 in 10.0 mi North 6.9 mph - N/A   Clear
11:15 AM 55.6 °F - 21.0 °F 26% 30.21 in 10.0 mi NNW 6.9 mph - N/A   Clear
11:35 AM 56.8 °F - 20.7 °F 25% 30.21 in 10.0 mi NNW 10.4 mph - N/A   Clear
11:55 AM 57.9 °F - 19.8 °F 23% 30.20 in 10.0 mi North 10.4 mph - N/A   Clear
12:15 PM 58.6 °F - 19.8 °F 22% 30.19 in 10.0 mi NW 8.1 mph - N/A   Clear
12:35 PM 59.9 °F - 20.8 °F 22% 30.19 in 10.0 mi North 8.1 mph - N/A   Clear
12:55 PM 61.7 °F - 20.8 °F 21% 30.18 in 10.0 mi North 10.4 mph - N/A   Clear
1:15 PM 62.2 °F - 20.8 °F 20% 30.17 in 10.0 mi NNW 5.8 mph - N/A   Clear
1:35 PM 63.5 °F - 20.3 °F 19% 30.15 in 10.0 mi NNW 6.9 mph - N/A   Clear
1:55 PM 65.3 °F - 20.5 °F 18% 30.14 in 10.0 mi WNW 6.9 mph - N/A   Clear
2:15 PM 67.1 °F - 20.7 °F 17% 30.12 in 10.0 mi West 12.7 mph - N/A   Clear
2:35 PM 68.2 °F - 20.1 °F 16% 30.10 in 10.0 mi WNW 9.2 mph 17.3 mph N/A   Clear
2:55 PM 68.5 °F - 20.7 °F 16% 30.09 in 10.0 mi WNW 9.2 mph - N/A   Clear
3:15 PM 69.6 °F - 20.7 °F 16% 30.08 in 10.0 mi WNW 9.2 mph - N/A   Clear
3:35 PM 71.2 °F - 21.2 °F 15% 30.06 in 10.0 mi North 9.2 mph - N/A   Clear
3:55 PM 71.1 °F - 21.4 °F 15% 30.05 in 10.0 mi WSW 4.6 mph - N/A   Clear
4:15 PM 72.1 °F - 20.7 °F 14% 30.04 in 10.0 mi North 9.2 mph - N/A   Clear
4:35 PM 72.1 °F - 20.7 °F 14% 30.03 in 10.0 mi NW 9.2 mph - N/A   Clear
4:55 PM 73.2 °F - 20.7 °F 14% 30.03 in 10.0 mi NNW 8.1 mph 18.4 mph N/A   Clear
5:15 PM 72.9 °F - 20.3 °F 14% 30.02 in 10.0 mi NW 8.1 mph 12.7 mph N/A   Clear
5:35 PM 72.5 °F - 20.8 °F 14% 30.02 in 10.0 mi NNE 6.9 mph - N/A   Clear
5:55 PM 72.5 °F - 20.8 °F 14% 30.02 in 10.0 mi NNW 9.2 mph - N/A   Clear
6:15 PM 71.6 °F - 20.5 °F 15% 30.01 in 10.0 mi Calm Calm - N/A   Clear
6:35 PM 71.6 °F - 20.8 °F 15% 30.01 in 10.0 mi NNE 4.6 mph - N/A   Clear
6:55 PM 71.1 °F - 21.2 °F 15% 30.01 in 10.0 mi North 4.6 mph - N/A   Clear
7:15 PM 70.3 °F - 21.0 °F 15% 30.02 in 10.0 mi Calm Calm - N/A   Clear
7:35 PM 69.3 °F - 21.2 °F 16% 30.02 in 10.0 mi Calm Calm - N/A   Clear
7:55 PM 66.9 °F - 21.6 °F 18% 30.02 in 10.0 mi SSE 3.5 mph - N/A   Clear
8:15 PM 62.6 °F - 23.2 °F 22% 30.03 in 10.0 mi South 3.5 mph - N/A   Clear
8:35 PM 60.8 °F - 24.1 °F 25% 30.04 in 10.0 mi South 5.8 mph - N/A   Clear
8:55 PM 62.1 °F - 23.9 °F 23% 30.05 in 10.0 mi Calm Calm - N/A   Clear
9:15 PM 58.3 °F - 25.3 °F 28% 30.06 in 10.0 mi Calm Calm - N/A   Clear
9:35 PM 58.5 °F - 22.6 °F 25% 30.07 in 10.0 mi Calm Calm - N/A   Clear
9:55 PM 56.7 °F - 27.3 °F 33% 30.07 in 10.0 mi Calm Calm - N/A   Clear
10:15 PM 55.9 °F - 27.0 °F 33% 30.07 in 10.0 mi Calm Calm - N/A   Clear
10:35 PM 54.3 °F - 27.7 °F 36% 30.08 in 10.0 mi East 3.5 mph - N/A   Clear
10:55 PM 55.0 °F - 26.8 °F 34% 30.08 in 10.0 mi East 4.6 mph - N/A   Clear
11:35 PM 51.4 °F - 26.2 °F 38% 30.09 in 10.0 mi Calm Calm - N/A   Clear
11:55 PM 51.1 °F - 25.5 °F 37% 30.09 in 10.0 mi Calm Calm - N/A   Clear